Location: Stendal
(52.5994°N, 11.8400°E)
Time: 09:34:00
(UTC+02:00)

Envisat - Visible Passes

Search period start: 04 October 2022 00:00
Search period end: 14 October 2022 00:00
Orbit: 764 x 765 km, 98.2° (Epoch: 03 October)

Date Brightness Start Highest point End Pass type
(mag) Time Alt. Az. Time Alt. Az. Time Alt. Az.
04 Oct 3.8 05:20:48 10° NNE 05:25:47 52° E 05:30:44 10° S visible
05 Oct 5.0 04:44:14 10° NE 04:48:33 27° E 04:52:50 10° SSE visible
05 Oct 3.1 06:22:54 10° N 06:27:51 54° WNW 06:32:47 10° SW visible
06 Oct 5.8 04:08:28 10° NE 04:11:07 14° E 04:13:44 10° ESE visible
06 Oct 3.1 05:45:50 10° NNE 05:50:57 81° ESE 05:56:02 10° SSW visible
07 Oct 4.2 05:09:01 10° NNE 05:13:51 42° E 05:18:39 10° SSE visible
08 Oct 5.3 04:32:36 10° NE 04:36:34 22° E 04:40:29 10° SE visible
08 Oct 3.0 06:10:58 10° N 06:16:02 65° WNW 06:21:03 10° SSW visible
09 Oct 6.0 03:57:33 10° ENE 03:59:03 11° E 04:00:32 10° E visible
09 Oct 3.4 05:33:58 10° NNE 05:39:04 67° ESE 05:44:07 10° S visible
10 Oct 4.6 04:57:15 10° NNE 05:01:54 34° E 05:06:30 10° SSE visible
10 Oct 3.4 06:36:14 10° N 06:41:00 42° WNW 06:45:47 10° SW visible
11 Oct 5.6 04:21:04 10° NE 04:24:32 18° E 04:27:59 10° SE visible
11 Oct 2.9 05:59:04 10° NNE 06:04:11 80° WNW 06:09:16 10° SSW visible
12 Oct 3.7 05:22:08 10° NNE 05:27:09 54° E 05:32:07 10° S visible
13 Oct 4.9 04:45:33 10° NNE 04:49:56 28° E 04:54:16 10° SSE visible
13 Oct 3.2 06:24:16 10° N 06:29:12 51° WNW 06:34:07 10° SW visible
